Погода в Ээнекоски

Финляндия     62°36′09″N   25°43′19″E
темп.,
°C
ветер,
м/с
пор.,
м/с
влажн.,
%
обл.,
%
осадки,
мм/ч
давл.,
гПа
погр.,
м
22 апреля, чт
чт2200:00+4ююв2593100 0.0 1001246
03:00+3ююв1297100 0.0 100075
06:00+2ю119798 0.0 100019
09:00+6юз01737 0.0 1000331
12:00+11юз12495 0.0 10011260
15:00+11ююз1143100 0.4 10011740
18:00+11ю1348100 0.5 10011552
21:00+7ююз3773100 1.3 1002342
23 апреля, пт
пт2300:00+5ю0083100 0.1 100215
03:00+4ссв1188100 0.3 100210
06:00+3с1192100 0.3 100134
09:00+5в1178100 0.6 1002530
12:00+8вюв125944 0.6 10021107
15:00+7юв4560100 2.3 10021387
18:00+5ююв4678100 1.4 1003673
21:00+3ююв228384 2.3 100431
24 апреля, сб
сб2400:00+1юв24878 0.1 100589
03:000в1192100 0.1 100610
06:000св139731 0.0 100784
09:00+2св3693100 0.3 1007461
12:00+4ссв4573100 0.7 10081057
15:00+3ссв5995100 2.1 1008664
18:00+2с51297100 1.6 1009715
21:00+1с51296100 4.9 1009677
25 апреля, вс
вс2500:00+1ссз51290100 2.0 1008788
03:00+1ссз51197100 2.1 1006825
06:00−1сз51396100 0.6 1005795
09:00−1сз51092100 1.8 1005818
12:00+1ссз3484100 0.6 1005759
15:00+3с0176100 0.7 1006623
18:00+3в1176100 0.1 1007632
21:000с119598 0.1 100913
26 апреля, пн
пн2600:00−1сз249596 0.0 100978
03:00+1сз2898100 0.0 1008303
06:00+3с4998100 0.3 1008478
09:00+3с41091100 0.3 1009683
12:00+5с4784100 0.0 1009931
15:00+6с4782100 0.3 1010948
18:00+4ссз4888100 0.1 1010781
21:00+2ссз4992100 0.1 1011520